• Join FlightAware (Why Join?)
  • Login
  • US Flag GB Flag 
22:18 EST


 

Airport Tracker/Info


-or-


 

Live Flight TrackerFlight Track Log ✈ SWA1718 ✈ 16-Apr-2013 ✈ KDAL - KAMA

Flight Track Log - Related Links

Times and Time Zones

All times are in EDT time to prevent confusion due to time zone crossing. See the SWA1718 flight status page for this flight to view local times or setup timezone preferences in your user account.

Time Position Orientation Groundspeed Altitude Reporting Facility
EDT Latitude Longitude Course Direction KTS MPH feet Rate Location/Type
15:23 32.8000 -96.8000 307° West 214 246 3,000  Level Dallas / Fort Worth TRACON
15:24 32.7500 -96.7500 140° Southeast 246 283 5,900 2,760 Climbing Dallas / Fort Worth TRACON
15:25 32.7000 -96.7333 164° South 270 311 8,600 1,920 Climbing Dallas / Fort Worth TRACON
15:26 32.6167 -96.8000 214° Southwest 323 372 10,000 720 Climbing Dallas / Fort Worth TRACON
15:27 32.5628 -96.8564 221° Southwest 368 423 9,900 1,440 Descending Fort Worth Center
15:28 32.5736 -96.9550 277° West 381 438 12,500 2,280 Climbing Fort Worth Center
15:29 33.1350 -97.4193 307° West  Level FlightAware Approximate
15:29 32.6575 -97.0186 327° Northwest 376 433 14,500  Level Fort Worth Center
15:30 32.7350 -97.1122 315° West 367 422 17,300 2,220 Climbing Fort Worth Center
15:31 32.7894 -97.2058 305° West 372 428 19,000 1,740 Climbing Fort Worth Center
15:32 32.8564 -97.3219 304° West 389 448 20,800 1,680 Climbing Fort Worth Center
15:33 32.9106 -97.4183 304° West 389 448 22,400 1,500 Climbing Fort Worth Center
15:34 32.9794 -97.5372 305° West 397 457 23,900 1,260 Climbing Fort Worth Center
15:35 33.0419 -97.6489 304° West 409 471 25,000 1,020 Climbing Fort Worth Center
15:36 33.1022 -97.7656 302° West 409 471 26,000 900 Climbing Fort Worth Center
15:37 33.1414 -97.8947 290° West 404 465 26,900 1,020 Climbing Fort Worth Center
15:38 33.1847 -98.0242 292° West 414 476 28,100 1,200 Climbing Fort Worth Center
15:39 33.2444 -98.1436 301° West 414 476 29,300 1,200 Climbing Fort Worth Center
15:40 33.3044 -98.2411 306° West 420 483 30,500 1,140 Climbing Fort Worth Center
15:41 33.3767 -98.3686 304° West 413 475 31,600 960 Climbing Fort Worth Center
15:42 33.4364 -98.4689 306° West 413 475 32,500 900 Climbing Fort Worth Center
15:43 33.5022 -98.5817 305° West 421 484 33,500 720 Climbing Fort Worth Center
15:44 33.5719 -98.7000 305° West 426 490 34,000 240 Climbing Fort Worth Center
15:45 33.6375 -98.8181 304° West 426 490 34,000  Level Fort Worth Center
15:46 33.7028 -98.9314 305° West 426 490 34,000  Level Fort Worth Center
15:47 33.7828 -99.0578 307° West 426 490 34,000  Level Fort Worth Center
15:48 33.8375 -99.1614 302° West 421 484 34,000  Level Fort Worth Center
15:49 33.9006 -99.2753 304° West 421 484 34,000  Level Fort Worth Center
15:50 33.9697 -99.3944 305° West 421 484 34,000  Level Fort Worth Center
15:51 34.0347 -99.5089 304° West 421 484 34,000  Level Fort Worth Center
15:52 34.1017 -99.6258 305° West 421 484 34,000  Level Fort Worth Center
15:54 34.2394 -99.8728 304° West 423 487 34,000  Level Albuquerque Center
15:55 34.3044 -99.9897 304° West 420 483 34,000 -60 Level Albuquerque Center
15:56 34.3833 -100.1303 304° West 420 483 33,900 -1,500 Descending Albuquerque Center
15:57 34.4467 -100.2453 304° West 415 478 30,900 -2,820 Descending Albuquerque Center
15:58 34.5092 -100.3603 303° West 411 473 28,200 -2,520 Descending Albuquerque Center
15:59 34.5708 -100.4689 305° West 399 459 25,800 -2,040 Descending Albuquerque Center
16:00 34.6292 -100.5761 303° West 387 445 24,000 -1,500 Descending Albuquerque Center
16:02 34.6867 -100.6808 304° West 377 434 22,700 -2,220 Descending Albuquerque Center
16:03 34.7567 -100.8092 304° West 379 436 19,500 -2,880 Descending Albuquerque Center
16:04 34.8142 -100.9139 304° West 375 432 16,800 -2,520 Descending Albuquerque Center
16:05 34.8694 -101.0186 303° West 371 427 14,300 -2,220 Descending Albuquerque Center
16:06 34.9061 -101.1275 292° West 353 406 12,300 -1,920 Descending Albuquerque Center
16:07 34.9436 -101.2300 294° West 336 387 10,400 -1,740 Descending Albuquerque Center
16:08 34.9781 -101.3278 293° West 325 374 8,800 -1,620 Descending Albuquerque Center
16:09 35.0106 -101.4194 293° West 310 357 7,100 -1,380 Descending Albuquerque Center
16:10 35.0367 -101.5150 288° West 301 346 6,000 -540 Descending Albuquerque Center
16:11 35.0500 -101.6164 279° West 265 305 6,000  Level Albuquerque Center
16:12 35.0672 -101.6922 286° West 245 282 6,000 -540 Level Albuquerque Center
16:13 35.0942 -101.7633 295° West 235 270 5,000 -540 Descending Albuquerque Center
16:14 35.1489 -101.7697 355° North 209 241 5,000 -540 Level Albuquerque Center
16:15 35.1908 -101.7508 20° North 175 201 4,000 -720 Descending Albuquerque Center
16:16 35.2186 -101.7161 46° Northeast 155 178 3,600 -420 Descending Albuquerque Center